TimeCST,TemperatureF,Dew PointF,Humidity,Sea Level PressureIn,VisibilityMPH,Wind Direction,Wind SpeedMPH,Gust SpeedMPH,PrecipitationIn,Events,Conditions,WindDirDegrees,DateUTC
12:15 AM,23.0,23.0,100,29.97,9.0,South,5.8,-,N/A,,Overcast,180,2013-03-03 06:15:00
12:35 AM,23.0,23.0,100,29.97,10.0,South,6.9,-,N/A,,Overcast,180,2013-03-03 06:35:00
12:55 AM,23.0,23.0,100,29.96,9.0,South,6.9,-,N/A,,Overcast,170,2013-03-03 06:55:00
1:15 AM,23.0,23.0,100,29.96,8.0,South,6.9,-,N/A,,Overcast,180,2013-03-03 07:15:00
1:35 AM,23.0,23.0,100,29.97,8.0,South,9.2,-,N/A,,Overcast,180,2013-03-03 07:35:00
1:55 AM,23.0,23.0,100,29.97,8.0,South,9.2,-,N/A,,Overcast,180,2013-03-03 07:55:00
2:15 AM,23.0,23.0,100,29.96,8.0,South,9.2,-,N/A,,Overcast,190,2013-03-03 08:15:00
2:35 AM,23.0,23.0,100,29.96,8.0,SSW,8.1,-,N/A,,Overcast,200,2013-03-03 08:35:00
3:15 AM,23.0,23.0,100,29.94,8.0,South,5.8,-,N/A,,Overcast,170,2013-03-03 09:15:00
3:35 AM,23.0,23.0,100,29.93,7.0,SSE,6.9,-,N/A,,Overcast,160,2013-03-03 09:35:00
3:55 AM,21.2,21.2,100,29.93,5.0,SSE,8.1,-,N/A,,Overcast,160,2013-03-03 09:55:00
4:15 AM,21.2,21.2,100,29.92,5.0,SSE,11.5,-,N/A,,Overcast,150,2013-03-03 10:15:00
4:35 AM,21.2,21.2,100,29.92,5.0,SSE,11.5,-,N/A,,Overcast,150,2013-03-03 10:35:00
4:55 AM,21.2,21.2,100,29.92,5.0,SE,9.2,-,N/A,,Overcast,140,2013-03-03 10:55:00
5:15 AM,21.2,21.2,100,29.92,4.0,SE,12.7,-,N/A,,Overcast,140,2013-03-03 11:15:00
5:35 AM,21.2,21.2,100,29.92,4.0,SSE,10.4,-,N/A,,Overcast,150,2013-03-03 11:35:00
6:15 AM,21.2,21.2,100,29.91,3.0,SE,12.7,-,N/A,,Overcast,140,2013-03-03 12:15:00
6:35 AM,21.2,21.2,100,29.91,2.0,SE,12.7,-,N/A,,Overcast,140,2013-03-03 12:35:00
6:55 AM,21.2,21.2,100,29.91,1.8,SE,13.8,-,N/A,,Overcast,140,2013-03-03 12:55:00
7:15 AM,21.2,21.2,100,29.90,0.5,SE,15.0,-,N/A,Fog,Light Freezing Fog,140,2013-03-03 13:15:00
7:35 AM,21.2,21.2,100,29.90,0.5,SSE,16.1,-,N/A,Fog,Light Freezing Fog,150,2013-03-03 13:35:00
7:55 AM,19.4,19.4,100,29.89,0.5,SSE,17.3,-,N/A,Fog,Light Freezing Fog,150,2013-03-03 13:55:00
8:15 AM,19.4,19.4,100,29.89,0.5,SSE,17.3,-,N/A,Fog,Light Freezing Fog,150,2013-03-03 14:15:00
8:35 AM,19.4,19.4,100,29.88,1.0,SSE,17.3,-,N/A,,Overcast,150,2013-03-03 14:35:00
8:55 AM,21.2,21.2,100,29.88,0.8,SSE,17.3,-,N/A,,Overcast,150,2013-03-03 14:55:00
9:15 AM,21.2,21.2,100,29.88,1.5,SE,15.0,-,N/A,,Overcast,140,2013-03-03 15:15:00
9:35 AM,21.2,21.2,100,29.88,1.2,SE,13.8,-,N/A,,Overcast,140,2013-03-03 15:35:00
9:55 AM,21.2,21.2,100,29.88,1.5,SE,15.0,-,N/A,,Overcast,140,2013-03-03 15:55:00
10:15 AM,21.2,21.2,100,29.88,3.0,SSE,13.8,-,N/A,,Overcast,150,2013-03-03 16:15:00
10:35 AM,21.2,21.2,100,29.88,4.0,SE,11.5,-,N/A,,Overcast,140,2013-03-03 16:35:00
10:55 AM,23.0,23.0,100,29.88,4.0,SE,11.5,-,N/A,,Overcast,140,2013-03-03 16:55:00
11:15 AM,21.2,21.2,100,29.88,3.0,SE,12.7,-,N/A,,Overcast,130,2013-03-03 17:15:00
11:35 AM,21.2,21.2,100,29.87,4.0,SE,11.5,-,N/A,,Overcast,130,2013-03-03 17:35:00
11:55 AM,21.2,21.2,100,29.87,4.0,ESE,12.7,-,N/A,,Overcast,120,2013-03-03 17:55:00
12:15 PM,21.2,21.2,100,29.86,6.0,SE,15.0,-,N/A,,Mostly Cloudy,130,2013-03-03 18:15:00
12:35 PM,19.4,19.4,100,29.85,9.0,ESE,13.8,-,N/A,,Mostly Cloudy,120,2013-03-03 18:35:00
12:55 PM,19.4,19.4,100,29.84,9.0,ESE,17.3,-,N/A,,Mostly Cloudy,120,2013-03-03 18:55:00
1:15 PM,19.4,19.4,100,29.83,10.0,SE,17.3,-,N/A,,Mostly Cloudy,130,2013-03-03 19:15:00
1:35 PM,19.4,19.4,100,29.82,9.0,SE,16.1,-,N/A,,Overcast,130,2013-03-03 19:35:00
1:55 PM,21.2,19.4,93,29.81,8.0,ESE,19.6,-,N/A,,Overcast,120,2013-03-03 19:55:00
2:15 PM,21.2,19.4,93,29.81,5.0,ESE,19.6,-,N/A,,Overcast,120,2013-03-03 20:15:00
2:35 PM,21.2,19.4,93,29.80,5.0,ESE,19.6,23.0,N/A,,Overcast,120,2013-03-03 20:35:00
2:55 PM,21.2,19.4,93,29.80,5.0,ESE,19.6,-,N/A,,Scattered Clouds,120,2013-03-03 20:55:00
3:15 PM,21.2,19.4,93,29.80,7.0,ESE,21.9,-,N/A,,Mostly Cloudy,120,2013-03-03 21:15:00
3:35 PM,21.2,19.4,93,29.80,8.0,ESE,18.4,-,N/A,,Overcast,120,2013-03-03 21:35:00
3:55 PM,23.0,21.2,93,29.80,7.0,SE,23.0,-,N/A,,Mostly Cloudy,130,2013-03-03 21:55:00
4:15 PM,23.0,21.2,93,29.81,7.0,ESE,19.6,-,N/A,,Mostly Cloudy,120,2013-03-03 22:15:00
4:35 PM,23.0,21.2,93,29.81,7.0,ESE,19.6,-,N/A,,Overcast,120,2013-03-03 22:35:00
4:55 PM,23.0,21.2,93,29.82,5.0,ESE,17.3,23.0,N/A,,Overcast,120,2013-03-03 22:55:00
5:15 PM,23.0,21.2,93,29.81,2.5,ESE,19.6,-,N/A,,Overcast,120,2013-03-03 23:15:00
5:35 PM,23.0,21.2,93,29.81,1.8,ESE,19.6,-,N/A,,Overcast,120,2013-03-03 23:35:00
5:55 PM,23.0,21.2,93,29.81,1.2,ESE,17.3,-,N/A,,Overcast,120,2013-03-03 23:55:00
6:35 PM,23.0,23.0,100,29.82,0.8,ESE,17.3,-,0.02,Snow,Light Snow,110,2013-03-04 00:35:00
6:55 PM,23.0,23.0,100,29.82,1.5,ESE,15.0,-,0.04,Snow,Light Snow,110,2013-03-04 00:55:00
7:15 PM,23.0,23.0,100,29.82,1.5,ESE,17.3,-,0.01,Snow,Light Snow,110,2013-03-04 01:15:00
7:35 PM,23.0,23.0,100,29.82,2.0,ESE,19.6,-,0.01,,Overcast,110,2013-03-04 01:35:00
7:55 PM,23.0,23.0,100,29.82,1.8,ESE,18.4,-,0.01,Snow,Light Snow,110,2013-03-04 01:55:00
8:15 PM,23.0,23.0,100,29.82,1.0,ESE,19.6,25.3,0.01,Snow,Light Snow,110,2013-03-04 02:15:00
8:35 PM,23.0,23.0,100,29.82,1.0,ESE,18.4,-,0.05,Snow,Light Snow,110,2013-03-04 02:35:00
8:55 PM,23.0,23.0,100,29.82,2.0,ESE,17.3,-,0.07,Snow,Light Snow,110,2013-03-04 02:55:00
9:15 PM,23.0,23.0,100,29.82,2.5,ESE,16.1,-,N/A,Snow,Light Snow,120,2013-03-04 03:15:00
9:35 PM,23.0,23.0,100,29.82,2.0,ESE,16.1,-,N/A,Snow,Light Snow,110,2013-03-04 03:35:00
9:55 PM,23.0,23.0,100,29.82,0.8,ESE,19.6,-,0.05,Snow,Light Snow,120,2013-03-04 03:55:00
10:15 PM,23.0,23.0,100,29.82,0.8,ESE,18.4,-,0.05,Snow,Light Snow,110,2013-03-04 04:15:00
10:35 PM,23.0,23.0,100,29.82,1.2,ESE,17.3,-,0.09,Snow,Light Snow,110,2013-03-04 04:35:00
10:55 PM,23.0,23.0,100,29.81,1.0,ESE,18.4,-,0.12,Snow,Light Snow,110,2013-03-04 04:55:00
11:15 PM,23.0,23.0,100,29.81,1.5,ESE,19.6,-,0.01,Snow,Light Snow,110,2013-03-04 05:15:00
11:35 PM,23.0,23.0,100,29.81,1.8,ESE,21.9,-,0.02,Snow,Light Snow,120,2013-03-04 05:35:00
11:55 PM,23.0,23.0,100,29.81,1.8,ESE,20.7,-,0.03,Snow,Light Snow,110,2013-03-04 05:55:00